Weather History for Grove, OK

Change the Weather History Date:

Saturday, August 3, 2013

  Actual Average (KSLG) Record (KSLG)
Temperature  
Mean Temperature 79 °F -  
Max Temperature 89 °F 86 °F 109 °F (2011)
Min Temperature 69 °F 66 °F 64 °F (1997)
Cooling Degree Days 14    
Growing Degree Days 29 (Base 50)    
Moisture  
Dew Point 75 °F    
Average Humidity 84    
Maximum Humidity 100    
Minimum Humidity 58    
Precipitation  
Precipitation 0.00 in - - ()
Sea Level Pressure  
Sea Level Pressure 30.03 in    
Wind  
Wind Speed 6 mph (SE)    
Max Wind Speed 21 mph    
Max Gust Speed 29 mph    
Visibility 9 miles    
Events Rain , Thunderstorm    
Averages and records for this station are not official NWS values.
T = Trace of Precipitation, MM = Missing Value Source: NWS Daily Summary

Daily Weather History Graph

Daily Weather History Graph

Search for Another Location

Airport:

Trip Planner

Search our weather history database for the weather conditions in past years. The results will help you decide how hot, cold, wet, or windy it might be!

Date:

Astronomy

Aug. 03, 2013 Rise Set
Actual Time 6:26 AM CDT 8:22 PM CDT
Civil Twilight 5:58 AM CDT 8:51 PM CDT
Nautical Twilight 5:24 AM CDT 9:25 PM CDT
Astronomical Twilight 4:47 AM CDT 10:02 PM CDT
Moon 3:38 AM CDT (8/3) 6:05 PM CDT (8/3)
Length of Visible Light 14h 52m
Length of Day
13h 56m
Waning Crescent, 9% of the Moon is Illuminated
Aug 3
Waning Crescent
Aug 6
New
Aug 14
First Quarter
Aug 20
Full
Aug 28
Last Quarter

Hourly Weather History & Observations

Time (CDT) Temp. Heat Index Dew Point Humidity Pressure Visibility Wind Dir Wind Speed Gust Speed Precip Events Conditions
12:15 AM 82.4 °F 90.9 °F 77.0 °F 84% 29.90 in 10.0 mi SSE 5.8 mph - N/A   Clear
12:35 AM 82.4 °F 90.9 °F 77.0 °F 84% 29.91 in 10.0 mi South 3.5 mph - N/A   Clear
12:55 AM 82.4 °F 90.9 °F 77.0 °F 84% 29.91 in 10.0 mi SSE 5.8 mph - N/A   Scattered Clouds
1:15 AM 82.4 °F 90.9 °F 77.0 °F 84% 29.92 in 10.0 mi South 5.8 mph - N/A   Scattered Clouds
1:35 AM 82.4 °F 90.9 °F 77.0 °F 84% 29.92 in 10.0 mi South 5.8 mph - N/A   Scattered Clouds
1:55 AM 82.4 °F 90.9 °F 77.0 °F 84% 29.91 in 10.0 mi South 6.9 mph - N/A   Clear
2:15 AM 82.4 °F 90.9 °F 77.0 °F 84% 29.91 in 7.0 mi SSW 6.9 mph - N/A   Clear
2:35 AM 82.4 °F 90.9 °F 77.0 °F 84% 29.90 in 7.0 mi South 6.9 mph - N/A   Clear
2:55 AM 82.4 °F 90.9 °F 77.0 °F 84% 29.90 in 7.0 mi South 8.1 mph - N/A   Clear
3:15 AM 82.4 °F 90.9 °F 77.0 °F 84% 29.90 in 7.0 mi South 6.9 mph - N/A   Clear
3:35 AM 82.4 °F 90.9 °F 77.0 °F 84% 29.91 in 7.0 mi SW 4.6 mph - N/A   Scattered Clouds
3:55 AM 82.4 °F 90.9 °F 77.0 °F 84% 29.96 in 10.0 mi WNW 8.1 mph - N/A   Overcast
4:15 AM 82.4 °F 90.9 °F 77.0 °F 84% 29.96 in 10.0 mi WNW 6.9 mph - N/A   Overcast
4:35 AM 82.4 °F 90.9 °F 77.0 °F 84% 29.96 in 10.0 mi West 6.9 mph - N/A Thunderstorm Overcast
4:55 AM 82.4 °F 88.2 °F 73.4 °F 74% 29.98 in 10.0 mi NW 20.7 mph 28.8 mph N/A   Overcast
5:15 AM 78.8 °F - 77.0 °F 94% 30.01 in 7.0 mi North 12.7 mph 21.9 mph N/A Rain , Thunderstorm Heavy Thunderstorms and Rain
5:35 AM 73.4 °F - 73.4 °F 100% 30.02 in 4.0 mi North 8.1 mph - N/A Rain , Thunderstorm Rain
5:55 AM 71.6 °F - 71.6 °F 100% 30.03 in 5.0 mi NE 6.9 mph - N/A Rain , Thunderstorm Light Thunderstorms and Rain
6:15 AM 71.6 °F - 71.6 °F 100% 30.04 in 2.5 mi ENE 6.9 mph - N/A Rain , Thunderstorm Heavy Thunderstorms and Rain
6:35 AM 71.6 °F - 71.6 °F 100% 30.07 in 4.0 mi Calm Calm - N/A Rain , Thunderstorm Rain
6:55 AM 69.8 °F - 69.8 °F 100% 30.06 in 2.5 mi East 8.1 mph - N/A Rain , Thunderstorm Rain
7:15 AM 69.8 °F - 69.8 °F 100% 30.07 in 5.0 mi East 4.6 mph - N/A Rain Light Rain
7:35 AM 69.8 °F - 69.8 °F 100% 30.06 in 10.0 mi East 5.8 mph - N/A Rain Rain
7:55 AM 69.8 °F - 69.8 °F 100% 30.07 in 10.0 mi ESE 9.2 mph - N/A Rain Light Rain
8:15 AM 71.6 °F - 71.6 °F 100% 30.08 in 10.0 mi NE 9.2 mph 16.1 mph N/A   Light Drizzle
8:35 AM 71.6 °F - 71.6 °F 100% 30.08 in 10.0 mi ESE 10.4 mph 16.1 mph N/A Thunderstorm Mostly Cloudy
8:55 AM 71.6 °F - 71.6 °F 100% 30.07 in 10.0 mi SE 9.2 mph 16.1 mph N/A Thunderstorm Mostly Cloudy
9:15 AM 71.6 °F - 71.6 °F 100% 30.08 in 10.0 mi SE 9.2 mph - N/A Thunderstorm Scattered Clouds
9:35 AM 71.6 °F - 71.6 °F 100% 30.08 in 10.0 mi SE 9.2 mph - N/A   Clear
9:55 AM 73.4 °F - 73.4 °F 100% 30.08 in 10.0 mi SE 5.8 mph - N/A   Scattered Clouds
10:15 AM 75.2 °F - 73.4 °F 94% 30.08 in 10.0 mi ESE 9.2 mph - N/A   Clear
10:35 AM 77.0 °F - 75.2 °F 94% 30.08 in 10.0 mi SE 8.1 mph - N/A   Scattered Clouds
10:55 AM 78.8 °F - 75.2 °F 89% 30.08 in 10.0 mi ESE 9.2 mph - N/A   Clear
11:15 AM 78.8 °F - 75.2 °F 89% 30.08 in 10.0 mi ESE 11.5 mph - N/A   Clear
11:35 AM 80.6 °F 86.2 °F 75.2 °F 84% 30.08 in 10.0 mi ESE 9.2 mph - N/A   Scattered Clouds
11:55 AM 80.6 °F 86.2 °F 75.2 °F 84% 30.08 in 10.0 mi SE 5.8 mph - N/A   Mostly Cloudy
12:15 PM 80.6 °F 84.6 °F 71.6 °F 74% 30.07 in 10.0 mi SE 9.2 mph - N/A   Scattered Clouds
12:35 PM 82.4 °F 87.2 °F 71.6 °F 70% 30.07 in 10.0 mi ESE 9.2 mph - N/A   Clear
12:55 PM 82.4 °F 87.2 °F 71.6 °F 70% 30.06 in 10.0 mi SE 8.1 mph - N/A   Clear
1:15 PM 84.2 °F 89.6 °F 71.6 °F 66% 30.05 in 10.0 mi SE 5.8 mph - N/A   Clear
1:35 PM 84.2 °F 89.6 °F 71.6 °F 66% 30.05 in 10.0 mi SSE 9.2 mph - N/A   Clear
1:55 PM 86.0 °F 91.8 °F 71.6 °F 62% 30.05 in 10.0 mi SSE 8.1 mph - N/A   Clear
2:15 PM 84.2 °F 89.6 °F 71.6 °F 66% 30.05 in 10.0 mi SE 3.5 mph - N/A   Clear
2:35 PM 84.2 °F 89.6 °F 71.6 °F 66% 30.05 in 10.0 mi Calm Calm - N/A   Scattered Clouds
2:55 PM 86.0 °F 93.4 °F 73.4 °F 66% 30.05 in 10.0 mi Calm Calm - N/A   Scattered Clouds
3:15 PM 86.0 °F 93.4 °F 73.4 °F 66% 30.04 in 10.0 mi Calm Calm - N/A   Clear
3:35 PM 87.8 °F 93.8 °F 71.6 °F 58% 30.03 in 10.0 mi South 6.9 mph - N/A   Clear
3:55 PM 87.8 °F 93.8 °F 71.6 °F 58% 30.03 in 10.0 mi SSE 3.5 mph - N/A   Clear
4:15 PM 89.6 °F 98.2 °F 73.4 °F 59% 30.03 in 10.0 mi South 3.5 mph - N/A   Clear
4:35 PM 87.8 °F 93.8 °F 71.6 °F 58% 30.03 in 10.0 mi South 5.8 mph - N/A   Clear
4:55 PM 87.8 °F 93.8 °F 71.6 °F 58% 30.04 in 10.0 mi Calm Calm - N/A   Clear
5:15 PM 87.8 °F 95.6 °F 73.4 °F 62% 30.04 in 10.0 mi SSW 3.5 mph - N/A   Clear
5:35 PM 87.8 °F 95.6 °F 73.4 °F 62% 30.04 in 10.0 mi Calm Calm - N/A   Clear
5:55 PM 86.0 °F 93.4 °F 73.4 °F 66% 30.04 in 10.0 mi SSE 4.6 mph - N/A   Clear
6:15 PM 86.0 °F 93.4 °F 73.4 °F 66% 30.04 in 10.0 mi SE 3.5 mph - N/A   Clear
6:35 PM 86.0 °F 93.4 °F 73.4 °F 66% 30.04 in 10.0 mi SSE 3.5 mph - N/A   Clear
6:55 PM 84.2 °F 92.3 °F 75.2 °F 74% 30.04 in 10.0 mi Calm Calm - N/A   Clear
7:15 PM 84.2 °F 92.3 °F 75.2 °F 74% 30.04 in 10.0 mi Calm Calm - N/A   Clear
7:35 PM 82.4 °F 90.9 °F 77.0 °F 84% 30.04 in 10.0 mi Calm Calm - N/A   Clear
7:55 PM 82.4 °F 90.9 °F 77.0 °F 84% 30.05 in 10.0 mi Calm Calm - N/A   Clear
8:15 PM 82.4 °F 90.9 °F 77.0 °F 84% 30.05 in 10.0 mi Calm Calm - N/A   Clear
8:35 PM 80.6 °F 89.3 °F 80.6 °F 100% 30.05 in 10.0 mi Calm Calm - N/A   Clear
8:55 PM 80.6 °F 89.3 °F 80.6 °F 100% 30.06 in 10.0 mi Calm Calm - N/A   Clear
9:15 PM 80.6 °F 89.3 °F 80.6 °F 100% 30.06 in 10.0 mi Calm Calm - N/A   Clear
9:35 PM 80.6 °F 89.3 °F 80.6 °F 100% 30.08 in 10.0 mi Calm Calm - N/A   Clear
9:55 PM 80.6 °F 89.3 °F 80.6 °F 100% 30.07 in 10.0 mi Calm Calm - N/A   Clear
10:15 PM 80.6 °F 89.3 °F 80.6 °F 100% 30.09 in 10.0 mi Calm Calm - N/A   Clear
10:35 PM 78.8 °F - 78.8 °F 100% 30.08 in 10.0 mi Calm Calm - N/A   Clear
10:55 PM 78.8 °F - 78.8 °F 100% 30.09 in 10.0 mi Calm Calm - N/A   Clear
11:15 PM 78.8 °F - 78.8 °F 100% 30.09 in 7.0 mi Calm Calm - N/A   Clear
11:35 PM 78.8 °F - 78.8 °F 100% 30.10 in 7.0 mi Calm Calm - N/A   Clear
11:55 PM 78.8 °F - 78.8 °F 100% 30.09 in 7.0 mi Calm Calm - N/A   Clear